User: anonymous   Login
Location: Unspecified
(0.0000°N, 0.0000°E)
Time: 13:01:15
(UTC+00:00)
Language:

Tansei-1 - Orbit

View from above orbital plane
View from above orbital plane
View from above satellite
View from above satellite

Ground track
Ground track

The orbit data is extracted from the following two-line orbital elements,

1 04952U 71011A   21015.71097567  .00000071  00000-0  91438-5 0  9999
2 04952  29.6687  16.2388 0079782  35.7110 127.8000 13.58491205479295
Epoch (UTC): 15 January 2021 17:03:48
Eccentricity: 0.0079782
inclination: 29.6687°
perigee height: 982 km
apogee height: 1100 km
right ascension of ascending node: 16.2388°
argument of perigee: 35.7110°
revolutions per day: 13.58491205
mean anomaly at epoch: 127.8000°
orbit number at epoch: 47929

The dashed part of the orbit path shows where the satellite is in the earth's shadow,  

DLR